GSAT-8 (37605 NORAD) Tracking and Keplerian Element Data

This shows tracking and keplerian element data for the satellite.

Feedback or suggestion? Click here.




ElementValue
Catalog37605
NameGSAT-8
Epoch Orbit2749
Epoch Day323.48101281
Epoch Year2018
RAAN82.7719
Inclination0.0169
Eccentricity0.0008534
Argument of Perigee173.7407
Mean Anonmoly30.1798
Mean Motion1.00271497
Decay Rate9.5E-07
L11 37605U 11022A 18323.48101281 .00000095 00000-0 00000+0 0 9992
L22 37605 0.0169 82.7719 0008534 173.7407 30.1798 1.00271497 27493

Live tracking and technical data element details for GSAT-8 (NORAD 37605). GSAT-8 can be tracked NOW for your location showing map with azimuth and elevation plus other details from your city location.

Track the satellite on the map from your city or location and see movement details for azimuth, elevation, latitude, longitude, range, height, and movement on the map or in text.







IsCatalogInMostPopularTable: catalog: 37605, numindb: 57
Update: records affected: 1



GetName: 37605 GSAT-8

Hit Count: updated at: Wed, 21 Nov 2018 06:53:34 GMT